FW1418 Weather Reports


Display with metric or nautical units.
time (UTC)temp
F
wind
direction
speed
MPH
gust
MPH
rain 1hr
in
rain 24hr
in
rain mn
in
humidity
%
barometer
mb
20260508093054 38 206 0.0 3.0 0.00 0.00 0.00 81 1010.5
20260508091608 37 211 1.0 4.0 0.00 0.00 0.00 84 1010.6
20260508090052 35 227 0.0 2.0 0.00 0.00 0.00 87 1010.5
20260508084549 34 227 0.0 2.0 0.00 0.00 0.00 86 1010.6
20260508083048 35 227 0.0 0.0 0.00 0.00 0.00 85 1010.6
20260508081607 35 227 0.0 2.0 0.00 0.00 0.00 84 1010.7
20260508080048 36 227 0.0 2.0 0.00 0.00 0.00 81 1010.8
20260508074541 37 227 1.0 4.0 0.00 0.00 0.00 80 1011.0
20260508073046 38 216 2.0 4.0 0.00 0.00 0.00 79 1011.1
20260508071540 38 216 1.0 3.0 0.00 0.00 0.00 79 1011.3
20260508070037 39 215 0.0 2.0 0.00 0.00 0.00 77 1011.2
20260508064538 40 215 1.0 4.0 0.00 0.00 0.00 74 1011.4
20260508063036 40 230 2.0 7.0 0.00 0.00 0.00 74 1011.7
20260508061534 40 224 2.0 6.0 0.00 0.00 0.00 74 1011.6
20260508060048 39 190 2.0 5.0 0.00 0.00 0.00 75 1011.7
20260508054607 39 225 0.0 4.0 0.00 0.00 0.00 75 1011.7
20260508053044 38 207 1.0 4.0 0.00 0.00 0.00 75 1011.7
20260508051528 38 223 0.0 3.0 0.00 0.00 0.00 75 1011.8
20260508050030 37 223 0.0 3.0 0.00 0.00 0.00 77 1011.9
20260508041516 39 225 0.0 1.0 0.00 0.00 0.00 72 1012.0
20260508040013 41 225 1.0 3.0 0.00 0.00 0.00 68 1012.0
20260508034513 41 217 1.0 4.0 0.00 0.00 0.00 66 1011.9
20260508033017 42 219 1.0 5.0 0.00 0.00 0.00 64 1011.8
20260508031514 42 196 2.0 7.0 0.00 0.00 0.00 63 1011.9
20260508030011 42 206 2.0 5.0 0.00 0.00 0.00 63 1011.9
20260508024511 43 211 1.0 4.0 0.00 0.00 0.00 62 1011.8
20260508023011 43 227 2.0 5.0 0.00 0.00 0.00 62 1011.9
20260508021510 43 229 1.0 5.0 0.00 0.00 0.00 62 1011.9
20260508020009 43 211 0.0 7.0 0.00 0.00 0.00 62 1012.0
20260508014509 43 196 1.0 4.0 0.00 0.00 0.00 61 1011.8
20260508013010 44 182 0.0 3.0 0.00 0.00 0.00 62 1011.7
20260508011507 44 182 1.0 2.0 0.00 0.00 0.00 59 1011.7
20260508010016 45 182 0.0 4.0 0.00 0.00 0.00 58 1011.6
20260508004514 45 182 1.0 5.0 0.00 0.00 0.00 56 1011.5
20260508003008 46 214 1.0 7.0 0.00 0.00 0.00 54 1011.6
20260508001506 47 240 3.0 8.0 0.00 0.00 0.00 53 1011.5
20260508000005 47 199 2.0 5.0 0.00 0.00 0.00 51 1011.3
20260507234505 48 191 3.0 12.0 0.00 0.00 0.00 51 1011.2
20260507233007 49 237 3.0 10.0 0.00 0.00 0.00 50 1011.3
20260507231504 49 291 5.0 10.0 0.00 0.00 0.00 49 1011.2
20260507230002 50 211 2.0 8.0 0.00 0.00 0.00 48 1011.3
20260507224505 49 269 5.0 13.0 0.00 0.00 0.00 47 1011.4
20260507223100 48 328 4.0 12.0 0.00 0.00 0.00 49 1011.4
20260507221559 48 271 4.0 11.0 0.00 0.00 0.00 48 1011.7
20260507220059 48 248 7.0 16.0 0.00 0.00 0.00 48 1011.5
20260507214558 49 199 4.0 11.0 0.00 0.00 0.00 48 1011.6
20260507213058 49 235 3.0 16.0 0.00 0.00 0.00 48 1011.7
20260507211557 49 192 4.0 13.0 0.00 0.00 0.00 47 1011.8
20260507204555 48 222 7.0 13.0 0.00 0.00 0.00 49 1011.8
20260507203059 49 283 6.0 16.0 0.00 0.00 0.00 48 1011.7
20260507201552 49 271 5.0 14.0 0.00 0.00 0.00 50 1011.9
20260507200051 47 229 5.0 13.0 0.00 0.00 0.00 52 1012.0
20260507194552 47 270 6.0 15.0 0.00 0.00 0.00 50 1012.2
20260507193049 48 286 7.0 17.0 0.00 0.00 0.00 50 1012.2
20260507191551 49 234 5.0 15.0 0.00 0.00 0.00 52 1012.1
20260507190046 48 266 4.0 11.0 0.00 0.00 0.00 53 1012.3
20260507184544 46 336 6.0 13.0 0.00 0.00 0.00 56 1012.4
20260507183048 46 243 5.0 13.0 0.00 0.00 0.00 56 1012.5
20260507181543 46 246 5.0 12.0 0.00 0.00 0.00 61 1012.6
20260507180051 45 331 3.0 17.0 0.00 0.00 0.00 61 1012.7
20260507174540 46 258 6.0 12.0 0.00 0.00 0.00 60 1012.8
20260507173042 46 226 0.0 9.0 0.00 0.00 0.00 59 1012.9
20260507171544 46 273 6.0 13.0 0.00 0.00 0.00 57 1013.1
20260507170037 46 301 4.0 12.0 0.00 0.00 0.00 59 1013.2
20260507164544 46 205 3.0 11.0 0.00 0.00 0.00 56 1013.3
20260507163044 46 217 5.0 19.0 0.00 0.00 0.00 55 1013.4
20260507161540 47 304 4.0 10.0 0.00 0.00 0.00 56 1013.6
20260507160044 47 168 3.0 11.0 0.00 0.00 0.00 56 1013.6
20260507154532 46 193 5.0 16.0 0.00 0.00 0.00 58 1013.6
20260507153032 46 298 3.0 10.0 0.00 0.00 0.00 58 1013.7
20260507151531 46 175 4.0 11.0 0.00 0.00 0.00 59 1013.7
20260507150031 46 288 6.0 13.0 0.00 0.00 0.00 57 1013.7
20260507144534 46 192 5.0 11.0 0.00 0.00 0.00 57 1013.9
20260507143025 45 153 1.0 9.0 0.00 0.00 0.00 60 1013.7
20260507141524 45 268 6.0 14.0 0.00 0.00 0.00 61 1013.8
20260507140022 44 223 1.0 10.0 0.00 0.00 0.00 66 1013.9
20260507134519 44 209 5.0 10.0 0.00 0.00 0.00 67 1014.0
20260507133017 44 252 5.0 11.0 0.00 0.00 0.00 66 1013.9
20260507131517 43 182 3.0 9.0 0.00 0.00 0.00 67 1013.9
20260507130024 43 292 1.0 9.0 0.00 0.00 0.00 69 1013.9
20260507124518 43 205 2.0 8.0 0.00 0.00 0.00 70 1013.7
20260507123012 42 179 1.0 6.0 0.00 0.00 0.00 73 1013.7
20260507121507 41 211 2.0 6.0 0.00 0.00 0.00 73 1013.7
20260507120005 40 205 2.0 5.0 0.00 0.00 0.00 76 1013.6
20260507114504 40 5 0.0 2.0 0.00 0.00 0.00 78 1013.6
20260507113100 37 360 0.0 2.0 0.00 0.00 0.00 84 1013.5
20260507111600 33 360 0.0 0.0 0.00 0.00 0.00 87 1013.4
20260507110059 33 360 0.0 1.0 0.00 0.00 0.00 87 1013.1
20260507110000 33 360 0.0 1.0 0.00 0.00 0.00 89 1013.0
20260507104600 32 360 0.0 2.0 0.00 0.00 0.00 88 1013.0
20260507103058 31 360 1.0 3.0 0.00 0.00 0.00 88 1013.0
20260507101558 31 360 1.0 3.0 0.00 0.00 0.00 88 1013.0
20260507100154 31 360 2.0 4.0 0.00 0.00 0.00 86 1013.0
20260507094553 32 360 2.0 3.0 0.00 0.00 0.00 86 1013.0